Regional Weather Roundup
Issued by NWS Columbia, SC

Home | Current Version | Previous Version | Text Only | Print | Product List | Glossary On
Versions: 1 2 3 4 5 6 7 8 9 10 11 12 13 14 15 16 17 18 19 20 21 22 23 24 25 26 27 28 29 30 31 32 33 34 35 36 37 38 39 40 41 42 43 44 45 46 47 48 49 50
000
ASUS42 KCAE 211510
RWRCAE
REGIONAL WEATHER ROUNDUP
NATIONAL WEATHER SERVICE COLUMBIA SC
1100 AM EDT SUN SEP 21 2014

NOTE: "FAIR" INDICATES FEW OR NO CLOUDS BELOW 12,000 FEET WITH NO
SIGNIFICANT WEATHER AND/OR OBSTRUCTIONS TO VISIBILITY.

NOT ALL STATIONS ARE QUALITY CONTROLLED BY THE NATIONAL
WEATHER SERVICE. USE DATA WITH CAUTION...ESPECIALLY
DEWPOINT OBSERVATIONS.

SCZ001>056-GAZ040-063>065-077-211600-
...UPSTATE SOUTH CAROLINA...

CITY           SKY/WX    TMP DP  RH WIND       PRES   REMARKS
ANDERSON       SUNNY     78  63  59 W8        30.02S
LIBERTY        FAIR      76  65  67 SW6       30.00F
SPARTANBURG    FAIR      77  63  61 W6        29.99S
CLEMSON        SUNNY     78  62  57 W12       30.02F
GREENVILLE     SUNNY     76  62  62 W10       30.01F
GREENWOOD      SUNNY     78  63  59 W10       30.03R
GREER          SUNNY     76  64  66 W9        29.99S
ROCK HILL      SUNNY     76  61  59 MISG      29.99S
CHESTER        FAIR      79  57  47 W5        30.04S
LAURENS        FAIR      77  54  44 W6        30.01S


...CENTRAL SOUTH CAROLINA...

CITY           SKY/WX    TMP DP  RH WIND       PRES   REMARKS
COLUMBIA APT   MOSUNNY   80  60  50 W7        29.98S
COLUMBIA OWENS SUNNY     77  62  59 VRB3      29.99F
DARLINGTON     SUNNY     75  63  64 W6        29.96S
FLORENCE       MOSUNNY   78  61  55 NW6       29.95S
MCENTIRE ANGB  MOSUNNY   78  63  58 W6        29.99S
ORANGEBURG     SUNNY     78  60  53 NW8       30.00R
SUMTER SHAW    SUNNY     78  62  57 NW8       29.96S
NEWBERRY       FAIR      77  59  53 SW10      30.03S
AIKEN          FAIR      79  64  61 W10       30.05S
BARNWELL       FAIR      79  63  57 W6        30.02S
MANNING        FAIR      77  61  57 CALM      29.98S
CAMDEN         FAIR      75  61  60 W6        29.98F
LANCASTER      FAIR      75  64  69 W6        29.98S
WINNSBORO      FAIR      75  63  64 W6        30.00R


...EASTERN AND COASTAL SOUTH CAROLINA...

CITY           SKY/WX    TMP DP  RH WIND       PRES   REMARKS
MYRTLE BEACH   SUNNY     75  64  69 NW12      29.94R
N MYRTLE BCH   MOSUNNY   76  65  68 NW8       29.92R
CONWAY         FAIR      73  64  73 CALM      29.95R HAZE
MARION         FAIR      73  61  64 W7        29.95R
HARTSVILLE     FAIR      79  43  27 W5        29.97S
FLORENCE       MOSUNNY   78  61  55 NW6       29.95S
DARLINGTON     SUNNY     75  63  64 W6        29.96S
CHARLESTON APT MOSUNNY   79  63  57 NW7       29.99R
MOUNT PLEASANT FAIR      79  64  61 NW10      29.98R
WALTERBORO     SUNNY     79  55  44 NW6       30.01S
BEAUFORT       SUNNY     79  62  56 S8        30.01R


...EASTERN GEORGIA...

CITY           SKY/WX    TMP DP  RH WIND       PRES   REMARKS
AUGUSTA BUSH F SUNNY     80  63  55 W5        30.02R
AUGUSTA DANIEL SUNNY     79  61  53 VRB6      30.03R
THOMSON        SUNNY     79  69  72 W5        30.08R
WASHINGTON     FAIR      81  70  69 W8        30.04S
CLAXTON        FAIR      79  66  65 W6        30.04R
SYLVANIA       SUNNY     81  68  65 NW9       30.04R
STATESBORO     SUNNY     79  64  61 NW7       30.03S
SAVANNAH       MOSUNNY   79  61  53 NW9       30.02S


...SOUTHERN NORTH CAROLINA...

CITY           SKY/WX    TMP DP  RH WIND       PRES   REMARKS
CHARLOTTE      MOSUNNY   76  61  59 VRB3      29.98S
MONROE         SUNNY     77  60  55 W10       29.97S
WADESBORO      SUNNY     76  60  56 NW5       29.95F
ROCKINGHAM     SUNNY     74  61  61 NW10      29.95S
RUTHERFORDTON  SUNNY     71  63  74 S8        29.99F
ASHEVILLE      SUNNY     69  59  70 N5        30.05F

$$



USA.gov is the U.S. government's official web portal to all federal, state and local government web resources and services.